OpenBCM V2.0.3 (Linux)

Packet Radio Mailbox

IZ3LSV

[San Dona' di P. JN]

 Login: GUEST





  
LU1HVK > KEP      06.09.19 07:27l 244 Lines 12026 Bytes #999 (0) @ WW
BID : 31185_LU1HVK
Read: GUEST
Subj: TLE 06 09
Path: IZ3LSV<DB0ERF<DB0RES<DB0EEO<DB0GOS<ON0AR<GB7CIP<N3HYM<LU3DVN<LU9HGS<
      LU1HVK
Sent: 190906/0522Z 31185@LU1HVK.2594.CBA.ARG.SA LinBPQ6.0.18

                         _    _   _ _ _   ___     ___  __
                        | |  | | | / | | | \ \   / / |/ /
                        | |  | | | | | |_| |\ \ / /| ' /
                        | |__| |_| | |  _  | \ V / | . \
                        |_____\___/|_|_| |_|  \_/  |_|\_\

     BBS/NODO - CORDOBA (LEONES-FF87UH) - LU1HVK-4 NODO - LU1HVK-3 APRS

+----------------------------------------------------------------------------+
OSCAR 7
1  7530U 74089B   19248.86730883 -.00000024 +00000-0 +13227-3 0  9995
2  7530 101.7520 215.7400 0011921 192.8120 221.0540 12.53639605050200
OSCAR 11 (UoSAT 2)
1 14781U 84021B   19248.84011548 +.00000060 +00000-0 +13434-4 0  9996
2 14781 097.6079 269.7999 0009866 064.6366 295.5869 14.83103985889496
OSCAR 19 (LUSAT)
1 20442U 90005G   19248.85292081 +.00000004 +00000-0 +17640-4 0  9991
2 20442 098.6526 190.7379 0010625 277.5106 082.4870 14.32931799547652
EYESAT A
1 22825U 93061C   19248.91197312 -.00000010 +00000-0 +13989-4 0  9991
2 22825 098.9091 239.3775 0009306 124.1287 236.0779 14.30065578353000
ITAMSAT
1 22826U 93061D   19248.89518486 -.00000017 +00000-0 +11364-4 0  9990
2 22826 098.9032 239.3419 0009922 114.0781 246.1439 14.30399396353229
RADIO ROSTO
1 23439U 94085A   19248.80534192 -.00000043 +00000-0 -13661-4 0  9993
2 23439 064.8209 348.1876 0145666 097.8933 263.8552 11.27568348016818
JAS 2
1 24278U 96046B   19248.89272661 -.00000038 +00000-0 -36245-5 0  9991
2 24278 098.5492 031.5918 0350918 034.8191 327.5376 13.53093111138261
TECHSAT 1B
1 25397U 98043D   19248.89630127 -.00000009 +00000-0 +15463-4 0  9993
2 25397 098.6921 188.0956 0001840 130.0304 230.1036 14.23669908098925
ISS (ZARYA)
1 25544U 98067A   19249.04864348  .00001909  00000-0  40858-4 0  9990
2 25544  51.6464 320.1755 0007999  10.9066  53.2893 15.50437522187805
PCSAT
1 26931U 01043C   19248.92312884 -.00000046 +00000-0 +14120-4 0  9993
2 26931 067.0516 159.2250 0007480 272.5555 087.4690 14.30551145936238
SAUDISAT 1C
1 27607U 02058C   19248.91054744 -.00000038 +00000-0 +15589-4 0  9999
2 27607 064.5552 167.3939 0077750 241.2402 118.0875 14.75568921898597
CUTE-1
1 27844U 03031E   19248.59016358 +.00000036 +00000-0 +36004-4 0  9999
2 27844 098.6851 255.6260 0010244 156.5566 203.6081 14.22192640839466
CUBESAT XI 4
1 27848U 03031J   19248.88628431 +.00000020 +00000-0 +29142-4 0  9994
2 27848 098.6927 256.4345 0009930 166.9699 193.1736 14.21786056839367
MOZHAYETS 4
1 27939U 03042A   19248.90676345 +.00000013 +00000-0 +10986-4 0  9995
2 27939 098.0525 023.2277 0013306 171.8369 188.3052 14.66799708852157
CUBESAT XI 5
1 28895U 05043F   19248.87670599 +.00000119 +00000-0 +31688-4 0  9990
2 28895 097.9703 028.9429 0018180 101.3005 259.0241 14.63687399738839
CUTE-1.7+APD II
1 32785U 08021C   19248.88394690 +.00000181 +00000-0 +25129-4 0  9990
2 32785 097.5533 244.8767 0013232 007.4754 352.6658 14.88338840615391
DELFI C3
1 32789U 08021G   19248.89738471 +.00001029 +00000-0 +72524-4 0  9997
2 32789 097.4578 296.1495 0011465 207.5668 152.4953 15.07084475618799
SEEDS
1 32791U 08021J   19248.56754150 +.00000323 +00000-0 +38073-4 0  9993
2 32791 097.5301 250.6243 0012819 342.0207 018.0557 14.90861176615786
YUBELEINY
1 32953U 08025A   19248.67971457  .00000020  00000-0  75656-4 0  9992
2 32953  82.4998  95.6462 0019204 319.6621  40.3028 12.43091161512126
PRISM (HITOMI)
1 33493U 09002B   19248.75229880 +.00000711 +00000-0 +67709-4 0  9990
2 33493 098.1205 172.7039 0013489 284.2607 075.7115 14.96722156576964
KKS-1 (KISEKI)
1 33499U 09002H   19248.88446918 +.00000067 +00000-0 +17899-4 0  9992
2 33499 098.3459 090.1013 0008343 321.4116 038.6495 14.75459298570470
SWISSCUBE
1 35932U 09051B   19248.88542712 +.00000094 +00000-0 +32295-4 0  9996
2 35932 098.5959 057.2114 0006454 285.0203 075.0279 14.56305592528261
BEESAT
1 35933U 09051C   19248.88362815 +.00000088 +00000-0 +30990-4 0  9994
2 35933 098.5980 059.0022 0004772 302.3587 057.7148 14.56392186528338
ITUPSAT 1
1 35935U 09051E   19248.91828382 +.00000074 +00000-0 +28124-4 0  9997
2 35935 098.6090 059.2699 0007057 297.3037 062.7441 14.55549233528133
XIWANG-1 (HOPE-1)
1 36122U 09072B   19248.70457841 -.00000021 +00000-0 +55197-4 0  9997
2 36122 100.0747 247.3765 0007337 160.1096 200.0306 13.16351308467270
TISAT 1
1 36799U 10035E   19248.73137630 +.00000314 +00000-0 +37741-4 0  9991
2 36799 098.1659 043.5527 0012275 180.6617 179.4586 14.91146593496345
JUGNU
1 37839U 11058B   19248.29759590 +.00000323 +00000-0 +30482-4 0  9994
2 37839 019.9600 218.1005 0019139 113.5689 028.0903 14.12657528408274
SRMSAT
1 37841U 11058D   19248.38415737 +.00000309 +00000-0 +24504-4 0  9991
2 37841 019.9715 275.9823 0011876 342.3396 135.4452 14.10637860407726
M-CUBED/EXP-1 PRIME
1 37855U 11061F   19248.75296231 +.00000612 +00000-0 +38670-4 0  9993
2 37855 101.7106 184.9312 0173059 202.3638 156.9964 15.05561968428205
HORYU 2
1 38340U 12025D   19248.70238396 +.00000111 +00000-0 +24200-4 0  9995
2 38340 098.3231 289.6385 0010551 227.7839 132.2475 14.75744016382407
STRAND 1
1 39090U 13009E   19248.57211300 +.00000010 +00000-0 +18555-4 0  9996
2 39090 098.4820 093.1829 0010225 058.2686 301.9494 14.35095456341685
SOMP
1 39134U 13015E   19248.89355944 +.00000960 +00000-0 +52827-4 0  9994
2 39134 064.8629 123.8157 0035404 289.9702 069.7614 15.20292292352251
BEESAT 3
1 39135U 13015F   19248.89070532 +.00000771 +00000-0 +47744-4 0  9994
2 39135 064.8692 143.2446 0031852 302.5884 057.2167 15.17578655351873
BEESAT 2
1 39136U 13015G   19248.89191038 +.00000866 +00000-0 +53401-4 0  9992
2 39136 064.8688 147.2889 0023694 304.8134 055.0763 15.16995060351793
CUBEBUG 1
1 39153U 13018D   19248.83443662  .00000144  00000-0  25739-4 0  9993
2 39153  97.9804 346.5239 0015722 304.7815  55.1916 14.80589754343522
ZACUBE
1 39417U 13066B   19248.81507383  .00000168  00000-0  27316-4 0  9997
2 39417  97.5627 257.8708 0060094 133.5573 227.0653 14.81142423312758
TRITON 1
1 39427U 13066M   19248.87072341  .00000172  00000-0  35712-4 0  9999
2 39427  97.6844 221.3893 0112278 272.0798  86.7554 14.67873333309955
GOMX 1
1 39430U 13066Q   19248.81978249  .00000204  00000-0  45847-4 0  9995
2 39430  97.7524 200.1871 0151788   5.2442 355.0312 14.59278561308144
HUMSAT D
1 39433U 13066T   19248.67307487  .00000529  00000-0  56704-4 0  9996
2 39433  97.5471 292.9240 0031676  39.6401 320.7125 14.92239705314854
CUBEBUG 2
1 39440U 13066AA  19248.87158651 +.00000151 +00000-0 +27970-4 0  9997
2 39440 097.6064 242.6506 0079967 186.6697 173.3457 14.75880265310459
FUNCUBE 1
1 39444U 13066AE  19248.77184625 +.00000211 +00000-0 +32093-4 0  9999
2 39444 097.5603 259.8515 0059331 127.3212 233.3430 14.81966912311055
UWE-3
1 39446U 13066AG  19248.94324097 +.00000157 +00000-0 +27455-4 0  9994
2 39446 097.5836 249.8238 0070533 160.2445 200.1524 14.78415181310381
SPROUT
1 39770U 14029E   19248.81298130  .00000799  00000-0  94453-4 0  9992
2 39770  97.8880 351.6088 0008806 177.8168 182.3115 14.87408638286599
UNISAT 6
1 40012U 14033C   19248.82881241 +.00000137 +00000-0 +27807-4 0  9995
2 40012 097.7469 111.9903 0057659 201.2748 158.6063 14.74001910280344
DUCHIFAT 1
1 40021U 14033M   19248.75291441 +.00000392 +00000-0 +45753-4 0  9997
2 40021 097.9225 173.6073 0013558 143.8689 216.3447 14.90671792283322
QB50P1
1 40025U 14033R   19248.73015807 +.00000260 +00000-0 +33609-4 0  9990
2 40025 097.9030 168.2803 0012912 153.3976 206.7906 14.88974843282578
CHUBUSAT 1
1 40300U 14070C   19248.82043663  .00000836  00000-0  39245-4 0  9999
2 40300  97.3210 320.9838 0020565 134.7015   3.8417 15.22154960268052
NUDT-PHONESAT
1 40900U 15049B   19248.82650524  .00002499  00000-0  10920-3 0  9997
2 40900  97.4379 257.3933 0011036 268.4930 216.0662 15.22997604219706
ZDPS 2A
1 40901U 15049C   19248.91781981 +.00001016 +00000-0 +53526-4 0  9994
2 40901 097.4605 253.6015 0012185 291.8725 132.5079 15.17813600219258
ZDPS 2B
1 40902U 15049D   19248.95060981 +.00001300 +00000-0 +67853-4 0  9993
2 40902 097.4556 251.0689 0011943 287.8062 128.6291 15.17658585219232
XW-2A
1 40903U 15049E   19248.76480902  .00002355  00000-0  57075-4 0  9998
2 40903  97.3309 291.9542 0012303 214.3429 281.5853 15.42051248222432
KAITUO 1A
1 40904U 15049F   19248.77928446  .00000487  00000-0  29268-4 0  9997
2 40904  97.4689 249.4422 0013295 297.8631 187.0235 15.15416236218972
OBJECT G
1 40905U 15049G   19248.90403045  .00000338  00000-0  22012-4 0  9991
2 40905  97.4735 247.0345 0014321 291.7372 129.4641 15.14333303218860
XW-2C
1 40906U 15049H   19248.94921113 +.00000610 +00000-0 +35431-4 0  9999
2 40906 097.4695 249.7232 0013343 287.9059 127.9211 15.15737158219002
XW-2D
1 40907U 15049J   19248.91914596  .00000910  00000-0  50895-4 0  9998
2 40907  97.4673 249.3744 0012676 284.8725 143.1517 15.15932031219014
LILACSAT 2
1 40908U 15049K   19248.91315558 +.00000282 +00000-0 +19222-4 0  9993
2 40908 097.4811 248.1169 0014436 291.6707 155.5474 15.13839343218792
XW-2F
1 40910U 15049M   19248.93691919 +.00001263 +00000-0 +66485-4 0  9999
2 40910 097.4641 251.5045 0013113 276.7517 147.6017 15.17397182219038
XW-2B
1 40911U 15049N   19248.95317471 +.00000608 +00000-0 +35248-4 0  9995
2 40911 097.4697 250.0710 0012635 285.8280 129.6431 15.15858562218917
KAITUO 1B
1 40912U 15049P   19248.85770926  .00001237  00000-0  61032-4 0  9992
2 40912  97.4511 255.1907 0013277 255.9731 225.6403 15.19719953219336
TIANWANG 1C (TW-1C)
1 40926U 15051B   19248.93441265 +.00014919 +00000-0 +20723-3 0  9992
2 40926 097.1297 295.0438 0009305 075.8352 048.8591 15.57054613222486
TIANWANG 1B (TW-1B)
1 40927U 15051C   19248.91103243 +.00013930 +00000-0 +20584-3 0  9999
2 40927 097.1313 294.2289 0009716 088.0799 038.0192 15.55385669222325
